Location: Abraham Lincoln Continuation High School
(33.9711°N, 117.3662°W)
Time: 10:29:49
(UTC+00:00)

Cosmos 1680 Rocket - Pass Details

Date: 25 January 2021
Orbit: 761 x 780 km, 74.1° (Epoch: 08 March)

Event Time Altitude Azimuth Distance (km) Brightness Sun altitude
Rises 01:58:45 0° 350° (N) 3,235 6.7 -9.8°
Reaches altitude 10° 02:01:14 10° 357° (N) 2,303 5.8 -10.3°
Maximum altitude 02:06:13 44° 69° (ENE) 1,053 3.8 -11.3°
Drops below altitude 10° 02:11:08 10° 141° (SE) 2,284 5.7 -12.3°
Sets 02:13:36 0° 148° (SSE) 3,206 6.5 -12.8°
